TimeCDT,TemperatureF,Dew PointF,Humidity,Sea Level PressureIn,VisibilityMPH,Wind Direction,Wind SpeedMPH,Gust SpeedMPH,PrecipitationIn,Events,Conditions,WindDirDegrees,DateUTC
12:52 AM,81.0,61.0,50,29.83,10.0,SSE,13.8,-,N/A,,Clear,160,2013-06-23 05:52:00
1:52 AM,81.0,62.1,52,29.81,10.0,South,18.4,31.1,N/A,,Clear,170,2013-06-23 06:52:00
2:52 AM,80.1,63.0,56,29.81,10.0,SSE,21.9,28.8,N/A,,Clear,160,2013-06-23 07:52:00
3:52 AM,79.0,64.0,60,29.81,10.0,South,18.4,25.3,N/A,,Clear,170,2013-06-23 08:52:00
4:52 AM,77.0,64.0,64,29.81,10.0,South,17.3,24.2,N/A,,Clear,170,2013-06-23 09:52:00
5:52 AM,75.9,64.0,67,29.83,10.0,South,12.7,-,N/A,,Clear,170,2013-06-23 10:52:00
6:52 AM,75.0,64.0,69,29.85,10.0,South,12.7,-,N/A,,Clear,170,2013-06-23 11:52:00
7:52 AM,75.9,64.0,67,29.86,10.0,South,16.1,-,N/A,,Clear,180,2013-06-23 12:52:00
8:52 AM,78.1,62.1,58,29.88,10.0,South,17.3,24.2,N/A,,Clear,190,2013-06-23 13:52:00
9:52 AM,81.0,61.0,50,29.87,10.0,South,19.6,26.5,N/A,,Clear,180,2013-06-23 14:52:00
10:52 AM,84.0,61.0,46,29.84,10.0,South,20.7,28.8,N/A,,Clear,170,2013-06-23 15:52:00
11:52 AM,87.1,62.1,43,29.86,10.0,SSE,19.6,26.5,N/A,,Clear,160,2013-06-23 16:52:00
12:52 PM,90.0,61.0,38,29.83,10.0,South,20.7,32.2,N/A,,Clear,170,2013-06-23 17:52:00
1:52 PM,93.0,59.0,32,29.81,10.0,South,20.7,35.7,N/A,,Clear,170,2013-06-23 18:52:00
2:52 PM,95.0,57.9,29,29.79,10.0,SSE,21.9,31.1,N/A,,Clear,150,2013-06-23 19:52:00
3:52 PM,96.1,57.9,28,29.78,10.0,SSE,20.7,29.9,N/A,,Clear,160,2013-06-23 20:52:00
4:52 PM,95.0,57.9,29,29.78,10.0,SSE,20.7,28.8,N/A,,Clear,150,2013-06-23 21:52:00
5:52 PM,93.9,57.0,29,29.77,10.0,SSE,17.3,28.8,N/A,,Clear,160,2013-06-23 22:52:00
6:52 PM,91.9,59.0,33,29.76,10.0,SSE,20.7,27.6,N/A,,Clear,160,2013-06-23 23:52:00
7:52 PM,90.0,59.0,35,29.77,10.0,South,16.1,26.5,N/A,,Clear,170,2013-06-24 00:52:00
8:52 PM,87.1,60.1,40,29.79,10.0,SSE,19.6,25.3,N/A,,Clear,150,2013-06-24 01:52:00
9:52 PM,84.9,60.1,43,29.81,10.0,SSE,13.8,-,N/A,,Clear,160,2013-06-24 02:52:00
10:52 PM,84.0,60.1,44,29.83,10.0,SSE,15.0,-,N/A,,Clear,160,2013-06-24 03:52:00
11:52 PM,82.0,61.0,49,29.84,10.0,SSE,16.1,-,N/A,,Clear,160,2013-06-24 04:52:00